Regional Weather Roundup
Issued by NWS

Home | Current Version | Previous Version | Text Only | Print | Product List | Glossary Off
Versions: 1 2 3 4 5 6 7 8 9 10 11 12 13 14 15 16 17 18 19 20 21 22 23 24 25 26 27 28 29 30 31 32 33 34 35 36 37 38 39 40 41 42 43 44 45 46 47 48 49 50

000
ASUS43 KBIS 280410
RWRND

NORTH DAKOTA REGIONAL WEATHER ROUNDUP
NATIONAL WEATHER SERVICE BISMARCK ND
1100 PM CDT MON JUL 27 2015

NOTE: "FAIR" INDICATES FEW OR NO CLOUDS BELOW 12,000 FEET WITH NO
SIGNIFICANT WEATHER AND/OR OBSTRUCTIONS TO VISIBILITY.


NDZ001>003-009>011-017-280500-
NORTHWEST NORTH DAKOTA

CITY           SKY/WX    TMP DP  RH WIND       PRES   REMARKS
WILLISTON      LGT RAIN  68  64  87 S9        29.61R
MINOT          CLOUDY    82  69  64 SE17G24   29.59S
MINOT AFB      CLOUDY    80  74  81 SE16G24   29.57S
$$

NDZ018>021-031>035-040>046-280500-
SOUTHWEST NORTH DAKOTA

CITY           SKY/WX    TMP DP  RH WIND       PRES   REMARKS
BISMARCK       LGT RAIN  77  62  59 SW24G51   29.69S
DICKINSON      CLOUDY    74  56  53 SW30G54   29.73R
GARRISON         N/A     80  66  62 S25G53    29.59F
HETTINGER ARPT CLOUDY    69  57  65 E14       29.69S
$$

NDZ004>008-012>016-024-026-027-054-280500-
NORTHEAST NORTH DAKOTA

CITY           SKY/WX    TMP DP  RH WIND       PRES   REMARKS
GRAND FORKS    MOCLDY    77  71  82 SE10      29.74S
GRND FRKS AFB  MOCLDY    77  72  86 S10       29.75S
DEVILS LAKE    PTCLDY    79  68  69 SE13      29.71R
$$

NDZ022-023-025-028>030-036>039-047>053-280500-
SOUTHEAST NORTH DAKOTA

CITY           SKY/WX    TMP DP  RH WIND       PRES   REMARKS
FARGO          CLEAR     79  71  76 SE14G23   29.77R
JAMESTOWN      CLOUDY    78  74  87 SE16      29.71F
$$




USA.gov is the U.S. government's official web portal to all federal, state and local government web resources and services.